Total_Precipitation_Accumulation
0.06 0.15 0.21 0.23 0.21 0.18 0.14 0.13 0.25 0.28 0.37 0.47 0.63 0.60 0.59 0.56 0.48 0.48 0.56 0.55 0.52 0.51 0.55 0.56 0.61 0.60 0.60 0.61 0.65 0.81 1.19 1.39 1.36 1.31 1.31 1.28 1.29 1.37 1.43 1.50 1.55 1.77 1.94 2.05
0.10 0.14 0.15 0.16 0.19 0.18 0.13 0.11 0.10 0.16 0.30 0.35 0.56 0.69 0.67 0.65 0.62 0.59 0.59 0.54 0.52 0.46 0.55 0.62 0.67 0.68 0.66 0.67 0.71 0.83 1.08 1.29 1.28 1.25 1.23 1.17 1.22 1.31 1.47 1.58 1.74 1.92 1.93 1.91
0.15 0.19 0.17 0.24 0.20 0.17 0.15 0.14 0.15 0.23 0.37 0.36 0.41 0.57 0.68 0.67 0.61 0.56 0.60 0.53 0.53 0.56 0.65 0.84 0.76 0.76 0.81 0.75 0.76 0.88 1.09 1.25 1.31 1.28 1.30 1.28 1.25 1.41 1.61 1.78 1.93 2.04 2.00 1.94
0.21 0.25 0.36 0.28 0.21 0.22 0.25 0.28 0.29 0.32 0.36 0.39 0.50 0.57 0.70 0.86 0.71 0.56 0.60 0.62 0.69 0.67 0.74 0.82 0.80 0.83 0.86 0.86 0.86 0.96 1.14 1.34 1.41 1.36 1.40 1.49 1.49 1.58 1.81 2.03 2.17 2.19 2.14 2.04
0.31 0.34 0.41 0.38 0.30 0.34 0.38 0.43 0.45 0.49 0.43 0.47 0.53 0.63 0.76 0.73 0.71 0.74 0.73 0.72 0.78 0.86 0.89 0.96 0.97 0.92 0.93 1.03 1.05 1.13 1.21 1.38 1.50 1.53 1.60 1.62 1.66 1.84 2.07 2.25 2.29 2.28 2.31 2.21
0.44 0.52 0.59 0.58 0.43 0.37 0.45 0.77 0.61 0.63 0.62 0.55 0.57 0.83 0.94 0.78 0.70 0.70 0.80 0.88 0.86 0.93 0.97 1.00 1.04 1.09 1.12 1.20 1.32 1.44 1.53 1.63 1.82 1.99 2.15 2.21 2.24 2.29 2.34 2.43 2.39 2.40 2.34 2.31
0.65 0.76 0.70 0.56 0.50 0.44 0.83 1.17 0.87 0.84 0.82 0.72 0.83 0.93 0.93 0.79 0.72 0.67 0.71 0.85 0.91 0.91 1.00 1.09 1.10 1.22 1.39 1.47 1.58 1.71 1.86 1.94 2.14 2.42 2.59 2.59 2.59 2.52 2.43 2.44 2.47 2.43 2.31 2.26
0.88 1.11 1.17 0.65 0.61 0.93 1.17 1.01 1.03 1.04 1.00 0.93 0.91 0.96 0.97 0.92 0.76 0.69 0.70 0.77 0.88 0.93 0.98 1.16 1.39 1.58 1.82 1.93 1.91 2.01 2.15 2.29 2.47 2.68 2.62 2.56 2.73 2.65 2.61 2.67 2.65 2.49 2.36 2.25
1.14 1.34 1.14 0.80 0.92 1.10 1.09 1.06 1.09 1.07 1.01 0.91 0.86 1.00 0.95 0.86 0.83 0.70 0.68 0.74 0.84 0.92 1.04 1.21 1.48 1.85 2.11 2.16 2.26 2.30 2.37 2.51 2.58 2.63 2.78 2.92 2.98 2.88 2.78 2.73 2.63 2.42 2.29 2.15
1.38 1.46 1.23 1.07 1.06 1.03 1.06 1.08 1.04 0.96 0.91 0.91 0.86 0.88 0.87 0.80 0.77 0.72 0.72 0.79 0.83 0.92 1.09 1.35 1.58 1.89 2.05 2.11 2.15 2.18 2.23 2.23 2.31 2.45 2.58 2.68 2.91 2.96 2.85 2.69 2.59 2.50 2.38 2.21
1.74 1.82 1.69 1.55 1.32 1.16 1.14 1.10 1.13 1.08 1.00 0.96 0.92 0.86 0.79 0.76 0.75 0.74 0.73 0.82 0.90 0.99 1.11 1.24 1.45 1.65 1.76 1.92 2.00 2.16 2.21 2.14 2.10 2.13 2.27 2.38 2.48 2.54 2.50 2.47 2.28 2.16 2.05 1.96
2.02 1.76 1.70 1.83 1.58 1.37 1.31 1.28 1.32 1.34 1.30 1.17 1.07 0.98 0.89 0.84 0.76 0.72 0.71 0.81 0.91 1.01 1.14 1.24 1.41 1.61 1.71 1.84 1.92 2.00 2.03 1.96 1.96 1.95 2.04 2.09 2.10 2.03 1.85 1.77 1.61 1.45 1.38 1.31
1.68 1.58 1.56 1.68 1.58 1.52 1.59 1.63 1.62 1.56 1.39 1.16 1.03 0.98 0.88 0.79 0.74 0.74 0.80 0.92 1.05 1.10 1.19 1.32 1.42 1.56 1.74 1.89 2.00 2.06 1.95 1.81 1.70 1.67 1.74 1.76 1.81 1.92 1.97 1.74 1.53 1.33 1.18 1.04
1.53 1.69 1.89 1.93 1.88 1.73 1.74 1.81 1.76 1.51 1.38 1.26 1.11 1.03 0.94 0.83 0.77 0.75 0.78 0.91 1.03 1.10 1.13 1.20 1.38 1.49 1.65 1.82 1.91 1.98 1.89 1.79 1.68 1.65 1.70 1.73 1.77 1.84 1.97 1.97 1.70 1.34 1.18 1.06
1.65 1.66 1.86 1.99 1.93 1.92 1.88 1.86 1.88 1.72 1.48 1.43 1.35 1.23 1.12 1.08 1.04 0.96 0.93 0.98 1.10 1.19 1.22 1.23 1.34 1.41 1.57 1.80 1.83 1.80 1.74 1.68 1.62 1.64 1.66 1.68 1.77 1.81 1.81 1.85 1.74 1.51 1.26 1.03
1.99 1.81 1.84 1.93 1.89 1.84 1.80 1.75 1.72 1.68 1.53 1.41 1.34 1.28 1.17 1.12 1.13 1.10 1.10 1.20 1.39 1.41 1.37 1.37 1.38 1.42 1.57 1.78 1.81 1.73 1.63 1.52 1.42 1.45 1.46 1.43 1.47 1.55 1.56 1.60 1.56 1.44 1.27 1.01
1.98 2.03 1.95 1.81 1.73 1.70 1.64 1.52 1.47 1.44 1.51 1.48 1.30 1.17 1.10 1.00 1.03 1.13 1.25 1.32 1.41 1.38 1.34 1.38 1.35 1.30 1.45 1.65 1.77 1.74 1.58 1.37 1.13 1.04 1.13 1.23 1.32 1.39 1.39 1.37 1.38 1.34 1.15 0.88
1.67 1.76 1.71 1.58 1.52 1.48 1.46 1.37 1.28 1.22 1.27 1.28 1.16 1.08 1.07 1.08 1.17 1.29 1.44 1.46 1.42 1.32 1.23 1.20 1.14 1.17 1.32 1.41 1.50 1.56 1.46 1.33 1.14 1.02 1.05 1.11 1.19 1.30 1.31 1.25 1.21 1.17 1.04 0.84
1.45 1.40 1.43 1.39 1.31 1.25 1.20 1.16 1.17 1.13 1.11 1.15 1.10 1.07 1.12 1.21 1.34 1.44 1.48 1.62 1.65 1.47 1.26 1.12 1.09 1.07 1.19 1.22 1.27 1.38 1.37 1.29 1.17 1.08 1.10 1.10 1.13 1.21 1.17 1.11 1.08 1.03 0.96 0.85
1.43 1.33 1.37 1.33 1.25 1.19 1.10 1.04 1.02 0.98 1.04 1.10 1.13 1.17 1.28 1.35 1.50 1.64 1.67 1.70 1.71 1.60 1.33 1.12 1.01 1.00 1.04 1.09 1.16 1.17 1.21 1.17 1.04 0.99 1.01 1.04 1.02 1.04 1.00 0.96 0.92 0.88 0.83 0.79
1.41 1.40 1.38 1.39 1.30 1.16 1.07 1.03 0.99 0.97 1.01 1.10 1.21 1.29 1.42 1.52 1.60 1.76 1.93 1.90 1.66 1.52 1.32 1.11 0.95 0.91 0.91 1.00 1.06 1.07 1.12 1.15 1.06 0.99 0.98 0.99 0.97 0.96 0.91 0.88 0.84 0.78 0.75 0.74
1.22 1.28 1.26 1.23 1.18 1.11 1.04 1.03 1.02 1.02 1.08 1.16 1.22 1.30 1.44 1.52 1.61 1.73 1.76 1.89 1.75 1.60 1.29 1.04 0.89 0.85 0.85 0.92 0.90 0.97 1.00 1.03 0.99 0.92 0.88 0.88 0.88 0.92 0.90 0.83 0.78 0.73 0.71 0.71
1.10 1.12 1.14 1.13 1.12 1.13 1.05 1.01 1.05 1.08 1.14 1.23 1.32 1.41 1.52 1.50 1.58 1.91 1.96 1.75 1.62 1.51 1.18 1.01 0.97 0.90 0.86 0.83 0.86 0.91 0.91 0.93 0.92 0.83 0.76 0.77 0.81 0.88 0.93 0.89 0.86 0.77 0.73 0.70
1.13 1.05 1.04 1.02 0.99 1.05 1.05 1.00 1.02 1.11 1.15 1.19 1.22 1.31 1.47 1.49 1.43 1.51 1.75 1.83 1.67 1.46 1.16 1.07 1.00 0.88 0.82 0.80 0.93 0.97 0.95 0.93 0.90 0.79 0.69 0.68 0.73 0.84 0.89 0.91 0.90 0.84 0.79 0.76
1.14 1.04 0.93 0.93 0.98 1.06 1.11 1.13 1.19 1.21 1.23 1.20 1.10 1.12 1.28 1.40 1.49 1.43 1.41 1.48 1.53 1.34 1.17 1.09 1.01 0.96 0.81 0.78 0.93 1.03 1.02 1.01 0.92 0.80 0.73 0.76 0.81 0.85 0.86 0.85 0.82 0.77 0.79 0.81
1.15 1.06 1.02 0.94 0.93 1.02 1.13 1.28 1.44 1.45 1.42 1.42 1.25 1.08 1.10 1.12 1.13 1.17 1.22 1.26 1.27 1.25 1.14 1.10 1.01 0.96 0.88 0.84 0.90 1.02 1.11 1.14 1.01 0.89 0.88 0.93 0.92 0.88 0.87 0.82 0.76 0.75 0.72 0.70
1.05 1.02 1.01 0.97 0.99 1.03 1.14 1.27 1.47 1.54 1.49 1.51 1.36 1.12 1.02 0.97 0.95 0.98 1.05 1.14 1.16 1.17 1.17 1.12 1.02 0.94 0.88 0.87 0.89 0.94 1.03 1.09 1.05 0.99 0.95 0.95 0.98 0.98 0.91 0.85 0.81 0.77 0.74 0.69